TimeCET,TemperatureF,Dew PointF,Humidity,Sea Level PressureIn,VisibilityMPH,Wind Direction,Wind SpeedMPH,Gust SpeedMPH,PrecipitationIn,Events,Conditions,WindDirDegrees,DateUTC
12:00 AM,30.2,28.4,93,29.74,-9999.0,South,2.3,-,N/A,Snow,Light Snow,180,2012-12-10 23:00:00
12:30 AM,30.2,30.2,100,29.74,-9999.0,South,2.3,-,N/A,Snow,Light Snow,170,2012-12-10 23:30:00
12:45 AM,30.2,30.2,100,29.74,1.9,Calm,Calm,-,N/A,Snow,Light Snow,0,2012-12-10 23:45:00
1:00 AM,31,29,88,29.81,1,South,2.2,,,Snow,Light Snow,170,2012-12-11 00:00:00
1:00 AM,30.2,30.2,100,29.74,1.4,Variable,2.3,-,N/A,Snow,Light Snow,0,2012-12-11 00:00:00
1:30 AM,30.2,30.2,100,29.74,1.1,South,2.3,-,N/A,Snow,Light Snow,170,2012-12-11 00:30:00
1:54 AM,30.2,30.2,100,29.74,0.7,SSE,2.3,-,N/A,Snow,Light Snow,150,2012-12-11 00:54:00
2:00 AM,30.2,30.2,100,29.74,0.7,SSE,2.3,-,N/A,Snow,Light Snow,150,2012-12-11 01:00:00
2:30 AM,30.2,28.4,93,29.77,0.6,South,2.3,-,N/A,,Overcast,190,2012-12-11 01:30:00
2:36 AM,30.2,28.4,93,29.77,0.5,South,3.5,-,N/A,Fog-Snow,Light Snow,180,2012-12-11 01:36:00
2:50 AM,30.2,28.4,93,29.77,0.2,South,3.5,-,N/A,Fog-Snow,Light Snow,190,2012-12-11 01:50:00
3:00 AM,28.4,28.4,100,29.77,0.3,South,3.5,-,N/A,Fog-Snow,Light Snow,190,2012-12-11 02:00:00
3:22 AM,28.4,28.4,100,29.77,0.5,SSW,4.6,-,N/A,Fog-Snow,Light Snow,200,2012-12-11 02:22:00
3:30 AM,28.4,28.4,100,29.77,0.9,SSW,4.6,-,N/A,Snow,Light Snow,200,2012-12-11 02:30:00
3:43 AM,30.2,28.4,93,29.77,1.2,WSW,2.3,-,N/A,Snow,Light Snow,250,2012-12-11 02:43:00
4:00 AM,28.4,28.4,100,29.77,1.4,WSW,2.3,-,N/A,Snow,Light Snow,240,2012-12-11 03:00:00
4:30 AM,28.4,28.4,100,29.77,1.4,SW,2.3,-,N/A,Snow,Light Snow,230,2012-12-11 03:30:00
5:00 AM,28.4,26.6,93,29.77,1.4,SW,3.5,-,N/A,Snow,Light Snow,230,2012-12-11 04:00:00
5:16 AM,28.4,26.6,93,29.77,0.9,SW,2.3,-,N/A,Snow,Light Snow,220,2012-12-11 04:16:00
5:30 AM,28.4,26.6,93,29.80,0.7,SSW,2.3,-,N/A,Snow,Light Snow,210,2012-12-11 04:30:00
5:43 AM,28.4,26.6,93,29.80,1.0,SSW,2.3,-,N/A,Snow,Light Snow,210,2012-12-11 04:43:00
6:00 AM,28.4,26.6,93,29.80,1.1,SW,2.3,-,N/A,Snow,Light Snow,220,2012-12-11 05:00:00
6:30 AM,28.4,28.4,100,29.80,1.2,WSW,3.5,-,N/A,Snow,Light Snow,240,2012-12-11 05:30:00
6:47 AM,30.2,28.4,93,29.80,1.9,WNW,3.5,-,N/A,Snow,Light Snow,290,2012-12-11 05:47:00
7:00 AM,30,28,87,29.88,2,West,4.5,,,Snow,Light Snow,270,2012-12-11 06:00:00
7:00 AM,30.2,28.4,93,29.83,1.9,West,3.5,-,N/A,Snow,Light Snow,280,2012-12-11 06:00:00
7:08 AM,30.2,28.4,93,29.83,1.9,West,2.3,-,N/A,Snow,Light Snow,270,2012-12-11 06:08:00
7:30 AM,30.2,28.4,93,29.83,1.6,Variable,1.2,-,N/A,Snow,Light Snow,0,2012-12-11 06:30:00
8:00 AM,30.2,30.2,100,29.83,-9999.0,NW,5.8,-,N/A,Snow,Light Snow,320,2012-12-11 07:00:00
8:30 AM,32.0,30.2,93,29.86,1.9,NNW,5.8,-,N/A,Snow,Light Snow,330,2012-12-11 07:30:00
9:00 AM,32.0,28.4,87,29.86,1.1,North,3.5,-,N/A,Snow,Light Snow,360,2012-12-11 08:00:00
9:06 AM,32.0,28.4,87,29.86,0.9,NNW,6.9,-,N/A,Snow,Snow,340,2012-12-11 08:06:00
9:30 AM,30.2,28.4,93,29.86,0.7,NNW,9.2,-,N/A,Snow,Snow,340,2012-12-11 08:30:00
9:35 AM,30.2,28.4,93,29.89,0.6,NNW,11.5,-,N/A,Snow,Snow,340,2012-12-11 08:35:00
10:00 AM,30.2,28.4,93,29.89,0.9,NNW,11.5,-,N/A,Snow,Snow,340,2012-12-11 09:00:00
10:12 AM,30.2,26.6,86,29.89,1.9,NNW,13.8,-,N/A,Snow,Light Snow,330,2012-12-11 09:12:00
10:30 AM,30.2,26.6,86,29.89,1.9,NNW,12.7,-,N/A,Snow,Light Snow,330,2012-12-11 09:30:00
11:00 AM,30.2,24.8,80,29.92,1.9,NNW,15.0,-,N/A,Snow,Light Snow,330,2012-12-11 10:00:00
11:30 AM,28.4,24.8,86,29.92,2.5,NNW,15.0,-,N/A,Snow,Light Snow,330,2012-12-11 10:30:00
11:36 AM,28.4,23.0,80,29.92,1.4,NNW,17.3,-,N/A,Snow,Light Snow,330,2012-12-11 10:36:00
12:00 PM,28.4,23.0,80,29.92,1.6,NNW,12.7,-,N/A,Snow,Light Snow,340,2012-12-11 11:00:00
12:12 PM,28.4,24.8,86,29.92,1.9,North,11.5,-,N/A,Snow,Light Snow,360,2012-12-11 11:12:00
12:30 PM,28.4,23.0,80,29.92,0.9,North,10.4,-,N/A,Snow,Snow,350,2012-12-11 11:30:00
1:00 PM,28,24,80,30.01,2,North,8.9,,,Snow,Light Snow,350,2012-12-11 12:00:00
1:00 PM,28.4,23.0,80,29.95,2.2,North,9.2,-,N/A,Snow,Light Snow,350,2012-12-11 12:00:00
1:03 PM,28.4,23.0,80,29.95,2.5,North,8.1,-,N/A,Snow,Light Snow,350,2012-12-11 12:03:00
1:11 PM,28.4,23.0,80,29.95,3.7,North,6.9,-,N/A,Snow,Light Snow,350,2012-12-11 12:11:00
1:30 PM,28.4,23.0,80,29.95,6.2,North,9.2,-,N/A,Snow,Light Snow,350,2012-12-11 12:30:00
2:00 PM,28.4,21.2,74,29.95,6.2,NNW,11.5,-,N/A,Snow,Light Snow,340,2012-12-11 13:00:00
2:30 PM,28.4,21.2,74,29.98,6.2,North,8.1,-,N/A,Snow,Light Snow,350,2012-12-11 13:30:00
3:00 PM,26.6,21.2,80,29.98,6.2,NW,6.9,-,N/A,Snow,Light Snow,310,2012-12-11 14:00:00
3:30 PM,26.6,19.4,74,29.98,6.2,NW,13.8,-,N/A,Snow,Light Snow,320,2012-12-11 14:30:00
4:00 PM,26.6,19.4,74,30.01,6.2,NNW,13.8,-,N/A,Snow,Light Snow,330,2012-12-11 15:00:00
4:30 PM,24.8,19.4,80,30.01,6.2,North,4.6,-,N/A,,Partly Cloudy,350,2012-12-11 15:30:00
5:00 PM,21.2,15.8,80,30.01,6.2,Calm,Calm,-,N/A,,Mostly Cloudy,0,2012-12-11 16:00:00
5:14 PM,21.2,17.6,86,30.01,6.2,SSW,3.5,-,N/A,,Mostly Cloudy,200,2012-12-11 16:14:00
5:30 PM,21.2,17.6,86,30.01,6.2,SSW,3.5,-,N/A,,Mostly Cloudy,210,2012-12-11 16:30:00
6:00 PM,21.2,17.6,86,30.01,6.2,SE,4.6,-,N/A,,Overcast,130,2012-12-11 17:00:00
6:30 PM,23.0,19.4,86,30.04,6.2,South,3.5,-,N/A,,Mostly Cloudy,180,2012-12-11 17:30:00
7:00 PM,22,17,74,30.11,6,West,2.2,,,,Partly Cloudy,260,2012-12-11 18:00:00
7:00 PM,21.2,17.6,86,30.04,-9999.0,Variable,2.3,-,N/A,,Clear,0,2012-12-11 18:00:00
7:30 PM,21.2,19.4,93,30.04,3.7,WSW,4.6,-,N/A,,Unknown,240,2012-12-11 18:30:00
8:00 PM,17.6,15.8,93,30.04,2.2,ESE,3.5,-,N/A,,Mist,110,2012-12-11 19:00:00
8:13 PM,19.4,17.6,93,30.04,2.2,Calm,Calm,-,N/A,Fog,Mist,0,2012-12-11 19:13:00
8:30 PM,19.4,17.6,93,30.04,-9999.0,Calm,Calm,-,N/A,Fog,Mist,0,2012-12-11 19:30:00
9:00 PM,19.4,17.6,93,30.04,2.2,Variable,2.3,-,N/A,Fog,Mist,0,2012-12-11 20:00:00
9:30 PM,19.4,17.6,93,30.04,2.8,NNE,2.3,-,N/A,,Mist,30,2012-12-11 20:30:00
9:49 PM,19.4,15.8,86,30.04,2.2,ENE,4.6,-,N/A,Fog,Mist,70,2012-12-11 20:49:00
10:00 PM,17.6,15.8,93,30.04,2.2,ENE,4.6,-,N/A,Fog,Mist,60,2012-12-11 21:00:00
10:30 PM,19.4,15.8,86,30.06,2.2,ENE,5.8,-,N/A,,Mist,70,2012-12-11 21:30:00
11:00 PM,19.4,15.8,86,30.06,2.5,NNE,3.5,-,N/A,,Mist,30,2012-12-11 22:00:00
11:30 PM,17.6,14.0,86,30.06,-9999.0,Variable,2.3,-,N/A,,Mist,0,2012-12-11 22:30:00